Location: Bamobli
(6.6379°N, 10.9396°W)
Time: 23:28:28
(UTC+00:00)

Atlas Centaur 2 - Visible Passes

Search period start: 01 October 2020 00:00
Search period end: 11 October 2020 00:00
Orbit: 459 x 1310 km, 30.4° (Epoch: 01 October)

Date Brightness Start Highest point End Pass type
(mag) Time Alt. Az. Time Alt. Az. Time Alt. Az.
08 Oct 4.8 20:24:16 10° S 20:25:02 11° SSE 20:25:02 11° SSE visible
09 Oct 4.5 20:18:13 10° S 20:21:38 15° SSE 20:21:38 15° SSE visible
10 Oct 4.2 20:13:07 10° SSW 20:18:17 20° SSE 20:18:17 20° SSE visible
